Garrison, ND

4:59 AM CDT on April 26, 2017 (GMT -0500)
Garrison

Weather History for KN60 - March, 2013

Change the Weather History Date:

Sunday, March 10, 2013

  Actual Average Record
Temperature  
Mean Temperature 11 °F -  
Max Temperature 22 °F - 68 °F (2012)
Min Temperature 0 °F - -22 °F (2002)
Degree Days  
Heating Degree Days 54    
Month to date heating degree days 458  
Cooling Degree Days 0    
Month to date cooling degree days 0  
Year to date cooling degree days 0  
Moisture  
Dew Point 6 °F    
Average Humidity 78    
Maximum Humidity 88    
Minimum Humidity 67    
Precipitation  
Precipitation 0.00 in - 0.29 in (2009)
Month to date precipitation 0.43  
Year to date precipitation 1.52  
Sea Level Pressure  
Sea Level Pressure 30.29 in    
Wind  
Wind Speed 8 mph (NNW)    
Max Wind Speed 18 mph    
Max Gust Speed -    
T = Trace of Precipitation, MM = Missing Value Source: NWS Daily Summary

Daily Weather History Graph

Daily Weather History Graph

Search for Another Location

Airport or City:

Trip Planner

Search our weather history database for the weather conditions in past years. The results will help you decide how hot, cold, wet, or windy it might be!

Date:

Astronomy

Mar. 10, 2013 Rise Set
Actual Time 8:08 AM CDT 7:44 PM CDT
Civil Twilight 7:37 AM CDT 8:15 PM CDT
Nautical Twilight 7:01 AM CDT 8:50 PM CDT
Astronomical Twilight 6:25 AM CDT 9:27 PM CDT
Moon 7:11 AM CDT (3/10) 6:53 PM CDT (3/10)
Length of Visible Light 12h 37m
Length of Day
11h 36m
Waning Crescent, 2% of the Moon is Illuminated
Mar 10
Waning Crescent
Mar 11
New
Mar 19
First Quarter
Mar 27
Full
Apr 2
Last Quarter

Hourly Weather History & Observations

Time (CDT) Temp. Windchill Dew Point Humidity Pressure Visibility Wind Dir Wind Speed Gust Speed Precip Events Conditions
12:52 AM 8.1 °F -10.2 °F 3.9 °F 83% 30.26 in - NW 17.3 mph - N/A   Unknown
1:52 AM 7.0 °F -8.3 °F 3.0 °F 84% 30.28 in - NW 11.5 mph - N/A   Unknown
3:52 AM 6.1 °F -10.9 °F 1.9 °F 83% 30.29 in - NW 13.8 mph - N/A   Unknown
4:52 AM 3.9 °F -14.3 °F -0.0 °F 84% 30.30 in - NW 15.0 mph - N/A   Unknown
5:52 AM 3.0 °F -14.8 °F -0.9 °F 84% 30.32 in - NW 13.8 mph - N/A   Unknown
6:52 AM 1.9 °F -9.2 °F -2.0 °F 83% 30.35 in - NW 5.8 mph - N/A   Unknown
7:52 AM 1.0 °F -8.7 °F -2.9 °F 83% 30.39 in - NW 4.6 mph - N/A   Unknown
8:52 AM 1.9 °F -9.2 °F -2.0 °F 83% 30.40 in - NW 5.8 mph - N/A   Unknown
9:52 AM 3.9 °F -10.4 °F -0.0 °F 84% 30.41 in - NNW 9.2 mph - N/A   Unknown
10:52 AM 7.0 °F -5.7 °F 3.0 °F 84% 30.42 in - NW 8.1 mph - N/A   Unknown
11:52 AM 10.9 °F -0.8 °F 7.0 °F 84% 30.40 in - NW 8.1 mph - N/A   Unknown
12:52 PM 14.0 °F - 10.0 °F 84% 30.36 in - Calm Calm - N/A   Unknown
1:52 PM 17.1 °F 5.8 °F 12.0 °F 81% 30.35 in - NNW 9.2 mph - N/A   Unknown
2:52 PM 18.0 °F 11.1 °F 12.9 °F 81% 30.31 in - NNW 4.6 mph - N/A   Unknown
3:52 PM 21.0 °F 13.4 °F 12.9 °F 71% 30.28 in - NNW 5.8 mph - N/A   Unknown
4:52 PM 19.9 °F - 12.0 °F 71% 30.28 in - Calm Calm - N/A   Unknown
5:52 PM 19.9 °F - 10.9 °F 68% 30.26 in - Calm Calm - N/A   Unknown
6:52 PM 18.0 °F 9.8 °F 12.0 °F 78% 30.24 in - ESE 5.8 mph - N/A   Unknown
7:52 PM 12.9 °F 5.2 °F 9.0 °F 84% 30.24 in - ESE 4.6 mph - N/A   Unknown
8:52 PM 12.9 °F 6.9 °F 9.0 °F 84% 30.22 in - SE 3.5 mph - N/A   Unknown
9:52 PM 14.0 °F 2.9 °F 9.0 °F 80% 30.19 in - SE 8.1 mph - N/A   Unknown
10:52 PM 10.9 °F 0.2 °F 7.0 °F 84% 30.17 in - ESE 6.9 mph - N/A   Unknown
11:52 PM 12.0 °F 2.7 °F 9.0 °F 88% 30.14 in - East 5.8 mph - N/A   Unknown
12:52 AM 12.0 °F 4.1 °F 9.0 °F 88% 30.09 in - ESE 4.6 mph - N/A   Unknown